Location: Newark
(49.3808°N, 3.1844°E)
Time: 13:59:33
(UTC+00:00)

ISS - Visible Passes

Search period start: 23 September 2019 00:00
Search period end: 03 October 2019 00:00
Orbit: 411 x 421 km, 51.6° (Epoch: 23 September)

Date Brightness Start Highest point End Pass type
(mag) Time Alt. Az. Time Alt. Az. Time Alt. Az.
23 Sep -3.3 18:34:41 10° SW 18:37:51 43° SSE 18:40:32 14° E visible
23 Sep -2.3 20:11:15 10° W 20:13:26 36° W 20:13:26 36° W visible
24 Sep -3.8 19:22:44 10° WSW 19:26:03 77° NNW 19:26:57 45° ENE visible
24 Sep -0.4 20:59:42 10° WNW 20:59:51 11° WNW 20:59:51 11° WNW visible
25 Sep -3.8 18:34:15 10° WSW 18:37:34 83° SSE 18:40:23 14° ENE visible
25 Sep -2.1 20:11:11 10° W 20:13:17 34° WNW 20:13:17 34° WNW visible
26 Sep -3.4 19:22:37 10° W 19:25:55 58° N 19:26:39 44° NE visible
26 Sep -0.2 20:59:32 10° WNW 20:59:33 10° WNW 20:59:33 10° WNW visible
27 Sep -3.5 18:34:02 10° W 18:37:21 66° N 18:39:59 15° ENE visible
27 Sep -1.8 20:11:00 10° WNW 20:12:53 30° WNW 20:12:53 30° WNW visible
28 Sep -3.5 19:22:27 10° WNW 19:25:45 56° N 19:26:11 51° NE visible
29 Sep -3.3 18:33:52 10° W 18:37:10 55° N 18:39:28 18° ENE visible
29 Sep -1.6 20:10:44 10° WNW 20:12:21 26° WNW 20:12:21 26° WNW visible
30 Sep -3.8 19:22:11 10° WNW 19:25:31 71° NNE 19:25:38 70° NNE visible
01 Oct -3.5 18:33:37 10° WNW 18:36:56 61° N 18:38:54 22° E visible
01 Oct -1.3 20:10:26 10° WNW 20:11:48 22° W 20:11:48 22° W visible
02 Oct -3.8 19:21:51 10° WNW 19:25:05 73° SW 19:25:05 73° SW visible
